Flag for Australia Weather past 2 weeks in Bendigo, Victoria, Australia

Now
50 °F

Cool.


Feels Like: 49 °F
Forecast: 52 / 77 °F
Wind: 3 mph from South

Location: Bendigo Airport Aws

Current Time: Mar 4, 2015 at 6:22:06 AM

Latest Report: Mar 4, 2015 at 4:00 AM


Visibility: N/A

Pressure: 29.94 "Hg

Humidity: 85%

Dew point: 46 °F

Location of BendigoLocation

Historic Weather in Bendigo — Graph

°F

Bendigo temperature yesterday

Maximum temperature yesterday: 82 °F (at 4:00 PM)
Minimum temperature yesterday: 63 °F (at 7:00 AM)
Average temperature yesterday: 71 °F

Past Weeks' High & Low Weather Summary

 TemperatureHumidityPressure
High96 °F (Feb 22, 4:00 PM)91% (Feb 27, 6:00 AM)30.11 "Hg (Feb 27, 6:00 AM)
Low48 °F (Mar 2, 7:00 AM)18% (Feb 27, 6:00 PM)29.50 "Hg (Feb 28, 7:00 PM)
Average72 °F53%29.90 "Hg
* Reported Feb 17 4:00 AM — Mar 4 4:00 AM, Bendigo, Weather by CustomWeather, © 2015

Note: Actual official high and low records may vary slightly from our data, if they occured in-between our weather recording intervals... More about our weather records

Advertising

Bendigo weather history for previous 24 hours

 ConditionsComfort  
Time TempWeatherWind HumidityBarometerVisibility
4:00 AM
Wed, Mar 4
50 °FCool.3 mph85%29.94 "HgN/A
3:00 AM52 °FCool.3 mph83%29.94 "HgN/A
1:00 AM58 °FCool.7 mph69%29.96 "HgN/A
12:00 AM61 °FCool.10 mph63%29.96 "HgN/A
10:00 PM
Tue, Mar 3
68 °FMild.13 mph51%29.97 "HgN/A
9:00 PM71 °FMild.7 mph30%29.95 "HgN/A
7:00 PM80 °FPleasantly warm.8 mph23%29.91 "HgN/A
6:00 PM81 °FPleasantly warm.10 mph23%29.91 "HgN/A
4:00 PM82 °FPleasantly warm.10 mph23%29.91 "HgN/A
3:00 PM82 °FPleasantly warm.13 mph24%29.93 "HgN/A
1:00 PM79 °FPleasantly warm.12 mph29%29.98 "HgN/A
12:00 PM74 °FMild.5 mph39%29.99 "HgN/A
10:00 AM67 °FMild.7 mph59%30.00 "HgN/A
9:00 AM65 °FOvercast.8 mph64%29.98 "HgN/A
7:00 AM63 °FMild.7 mph61%29.96 "HgN/A
6:00 AM64 °FOvercast.9 mph57%29.93 "HgN/A
Weather by CustomWeather, © 2015

See weather overviewHow to use our weather pages